TimeEDT,TemperatureF,Dew PointF,Humidity,Sea Level PressureIn,VisibilityMPH,Wind Direction,Wind SpeedMPH,Gust SpeedMPH,PrecipitationIn,Events,Conditions,WindDirDegrees,DateUTC
12:53 AM,37.0,36.0,96,29.96,6.0,Calm,Calm,-,0.01,Rain,Light Rain,0,2013-04-05 04:53:00
1:35 AM,37.0,36.0,96,29.96,6.0,SSE,3.5,-,0.00,,Overcast,150,2013-04-05 05:35:00
1:53 AM,37.9,36.0,93,29.96,4.0,Calm,Calm,-,0.00,,Overcast,0,2013-04-05 05:53:00
2:19 AM,37.9,36.0,93,29.97,7.0,NNE,3.5,-,N/A,,Overcast,20,2013-04-05 06:19:00
2:36 AM,37.9,36.0,93,29.97,7.0,Calm,Calm,-,N/A,,Overcast,0,2013-04-05 06:36:00
2:53 AM,37.9,36.0,93,29.96,7.0,Calm,Calm,-,N/A,,Overcast,0,2013-04-05 06:53:00
3:53 AM,39.0,37.0,93,29.97,7.0,Calm,Calm,-,N/A,,Overcast,0,2013-04-05 07:53:00
4:33 AM,39.0,37.0,93,29.98,3.0,Calm,Calm,-,N/A,,Overcast,0,2013-04-05 08:33:00
4:53 AM,39.0,37.0,93,29.98,3.0,Calm,Calm,-,N/A,,Overcast,0,2013-04-05 08:53:00
4:58 AM,39.0,37.0,93,29.99,2.5,Calm,Calm,-,N/A,,Overcast,0,2013-04-05 08:58:00
5:53 AM,39.0,37.0,93,29.99,3.0,Calm,Calm,-,N/A,,Overcast,0,2013-04-05 09:53:00
6:17 AM,39.0,37.0,93,30.00,3.0,West,3.5,-,N/A,,Overcast,270,2013-04-05 10:17:00
6:53 AM,39.0,37.9,96,29.99,2.0,Calm,Calm,-,N/A,,Overcast,0,2013-04-05 10:53:00
7:27 AM,39.0,37.0,93,30.01,1.5,SW,3.5,-,N/A,,Overcast,220,2013-04-05 11:27:00
7:53 AM,39.0,37.9,96,30.02,1.5,SW,3.5,-,N/A,,Overcast,220,2013-04-05 11:53:00
8:53 AM,39.0,37.9,96,30.04,1.0,SW,6.9,-,0.01,Rain,Light Rain,220,2013-04-05 12:53:00
9:22 AM,39.9,37.9,93,30.05,1.5,SW,4.6,-,0.00,Rain,Light Rain,220,2013-04-05 13:22:00
9:51 AM,39.2,39.2,100,30.05,1.5,Calm,Calm,-,0.00,Rain,Light Rain,0,2013-04-05 13:51:00
9:53 AM,39.9,39.0,97,30.05,1.5,WSW,3.5,-,0.00,,Overcast,250,2013-04-05 13:53:00
10:45 AM,41.0,39.0,93,30.06,2.0,SSW,5.8,-,N/A,,Overcast,210,2013-04-05 14:45:00
10:53 AM,41.0,39.0,93,30.06,2.0,SSW,4.6,-,N/A,,Overcast,210,2013-04-05 14:53:00
11:53 AM,44.1,41.0,89,30.06,3.0,South,6.9,-,N/A,,Overcast,170,2013-04-05 15:53:00
12:25 PM,46.0,41.0,83,30.07,10.0,SW,6.9,-,N/A,,Overcast,230,2013-04-05 16:25:00
12:43 PM,46.9,39.0,74,30.06,10.0,South,3.5,-,N/A,,Mostly Cloudy,190,2013-04-05 16:43:00
12:53 PM,46.9,39.0,74,30.04,10.0,Calm,Calm,-,N/A,,Mostly Cloudy,0,2013-04-05 16:53:00
1:53 PM,50.0,39.0,66,30.01,10.0,Calm,Calm,-,N/A,,Scattered Clouds,0,2013-04-05 17:53:00
2:53 PM,53.1,39.0,59,30.00,10.0,SW,8.1,-,N/A,,Scattered Clouds,230,2013-04-05 18:53:00
3:53 PM,55.0,39.0,55,29.98,10.0,SSW,9.2,-,N/A,,Partly Cloudy,200,2013-04-05 19:53:00
4:53 PM,57.0,39.0,51,29.96,10.0,SSW,13.8,-,N/A,,Partly Cloudy,200,2013-04-05 20:53:00
5:53 PM,57.0,39.0,51,29.97,10.0,SSW,13.8,-,N/A,,Partly Cloudy,200,2013-04-05 21:53:00
6:53 PM,57.0,39.0,51,29.99,10.0,SSW,11.5,-,N/A,,Partly Cloudy,210,2013-04-05 22:53:00
7:53 PM,53.1,37.9,57,30.01,10.0,SW,5.8,-,N/A,,Clear,220,2013-04-05 23:53:00
8:53 PM,48.9,37.0,64,30.03,10.0,SW,6.9,-,N/A,,Clear,230,2013-04-06 00:53:00
9:53 PM,46.0,37.9,73,30.06,10.0,Calm,Calm,-,N/A,,Clear,0,2013-04-06 01:53:00
10:53 PM,41.0,37.0,86,30.07,10.0,Calm,Calm,-,N/A,,Clear,0,2013-04-06 02:53:00
11:53 PM,39.9,37.0,89,30.08,10.0,Calm,Calm,-,N/A,,Clear,0,2013-04-06 03:53:00